This demonstration page uses our WeatherBlox Daily Observations layout. Learn more.

Left ArrowRight Arrow

-33.86785, 151.20732

Hourly Observations for April 12, 2022

Temp ( °F °C ) Dew Point ( °F °C ) Humidity (%) Winds ( mph kmh ) Pressure ( in mb ) Visibility ( mi km ) Precip ( " mm )
12:00 am 00:00 Cloudy with Showers Nearby 66 19 64 18 94 94 S 17 28 30.09 1019 30 48 N/A
12:30 am 00:30 Windy with Rain Showers Likely 66 19 64 18 94 94 S 26 43 30.09 1019 5 8 N/A
1:00 am 01:00 Mostly Cloudy 66 19 63 17 88 88 S 21 33 30.09 1019 30 48 N/A
1:30 am 01:30 Mostly Cloudy 64 18 61 16 88 88 S 22 35 30.09 1019 30 48 N/A
2:00 am 02:00 Mostly Cloudy with Showers Nearby 66 19 61 16 83 83 SSE 22 35 30.09 1019 30 48 N/A
2:30 am 02:30 Mostly Cloudy with Showers Nearby 66 19 63 17 88 88 S 18 30 30.09 1019 30 48 N/A
3:00 am 03:00 Mostly Cloudy with Showers Nearby 64 18 63 17 94 94 S 21 33 30.09 1019 30 48 N/A
3:08 am 03:08 Mostly Cloudy with Showers Nearby 64 18 63 17 94 94 S 18 30 30.09 1019 30 48 N/A
3:30 am 03:30 Mostly Cloudy 64 18 61 16 88 88 S 16 26 30.09 1019 30 48 N/A
4:00 am 04:00 Mostly Cloudy 64 18 61 16 88 88 S 17 28 30.09 1019 30 48 N/A
4:30 am 04:30 Mostly Cloudy 64 18 61 16 88 88 S 18 30 30.09 1019 30 48 N/A
5:00 am 05:00 Mostly Cloudy 64 18 61 16 88 88 S 17 28 30.09 1019 30 48 N/A
5:30 am 05:30 Mostly Cloudy 64 18 61 16 88 88 SSW 15 24 30.09 1019 30 48 N/A
6:00 am 06:00 Mostly Cloudy 64 18 61 16 88 88 S 17 28 30.12 1020 30 48 N/A
6:30 am 06:30 Mostly Cloudy 64 18 61 16 88 88 S 15 24 30.12 1020 30 48 N/A
7:00 am 07:00 Mostly Cloudy 64 18 61 16 88 88 SSW 14 22 30.12 1020 30 48 N/A
7:30 am 07:30 Mostly Cloudy 64 18 59 15 83 83 SSW 13 20 30.12 1020 30 48 N/A
8:00 am 08:00 Mostly Cloudy 66 19 59 15 78 78 S 13 20 30.15 1021 30 48 N/A
8:30 am 08:30 Mostly Cloudy 66 19 59 15 78 78 SSW 15 24 30.15 1021 30 48 N/A
9:00 am 09:00 Mostly Cloudy 66 19 61 16 83 83 S 16 26 30.15 1021 30 48 N/A
10:00 am 10:00 Mostly Cloudy 68 20 61 16 78 78 S 17 28 30.15 1021 30 48 N/A
10:30 am 10:30 Mostly Cloudy with Showers Nearby 68 20 61 16 78 78 S 16 26 30.15 1021 30 48 N/A
11:00 am 11:00 Mostly Cloudy 68 20 59 15 73 73 S 17 28 30.15 1021 30 48 N/A
11:30 am 11:30 Mostly Cloudy 70 21 59 15 69 69 S 17 28 30.15 1021 30 48 N/A
12:00 pm 12:00 Mostly Cloudy 68 20 59 15 73 73 S 17 28 30.15 1021 30 48 N/A
12:30 pm 12:30 Mostly Cloudy 68 20 59 15 73 73 S 17 28 30.12 1020 30 48 N/A
1:00 pm 13:00 Hazy 70 21 61 16 73 73 S 18 30 30.12 1020 3 5 N/A
1:30 pm 13:30 Mostly Cloudy 68 20 59 15 73 73 S 20 31 30.12 1020 30 48 N/A
2:00 pm 14:00 Mostly Cloudy 70 21 59 15 69 69 S 20 31 30.12 1020 30 48 N/A
2:30 pm 14:30 Partly Cloudy 68 20 59 15 73 73 S 20 31 30.12 1020 30 48 N/A
3:00 pm 15:00 Partly Cloudy 68 20 61 16 78 78 S 20 31 30.09 1019 30 48 N/A
3:30 pm 15:30 Partly Cloudy 70 21 59 15 69 69 S 18 30 30.09 1019 30 48 N/A
4:00 pm 16:00 Mostly Cloudy 68 20 59 15 73 73 SSE 17 28 30.09 1019 30 48 N/A
4:30 pm 16:30 Mostly Cloudy 68 20 59 15 73 73 SSE 17 28 30.09 1019 30 48 N/A
4:38 pm 16:38 Mostly Cloudy with Haze 68 20 59 15 73 73 SSE 18 30 30.09 1019 3 5 N/A
5:00 pm 17:00 Mostly Cloudy 68 20 57 14 69 69 SSE 16 26 30.09 1019 30 48 N/A
5:30 pm 17:30 Mostly Cloudy 68 20 59 15 73 73 SSE 17 28 30.12 1020 30 48 N/A
6:00 pm 18:00 Mostly Cloudy 68 20 57 14 69 69 SSE 15 24 30.12 1020 30 48 N/A
6:30 pm 18:30 Cloudy 68 20 59 15 73 73 SSE 15 24 30.12 1020 30 48 N/A
7:00 pm 19:00 Cloudy 68 20 59 15 73 73 SSE 16 26 30.12 1020 30 48 N/A
7:30 pm 19:30 Cloudy 68 20 59 15 73 73 SSE 17 28 30.12 1020 30 48 N/A
8:00 pm 20:00 Mostly Cloudy 68 20 59 15 73 73 SSE 16 26 30.12 1020 30 48 N/A
8:30 pm 20:30 Mostly Cloudy 68 20 59 15 73 73 S 15 24 30.15 1021 30 48 N/A
9:00 pm 21:00 Mostly Cloudy 68 20 59 15 73 73 S 17 28 30.15 1021 30 48 N/A
9:30 pm 21:30 Mostly Cloudy 66 19 59 15 78 78 S 15 24 30.15 1021 30 48 N/A
10:00 pm 22:00 Partly Cloudy 66 19 59 15 78 78 S 14 22 30.15 1021 30 48 N/A
10:30 pm 22:30 Mostly Clear 66 19 59 15 78 78 SSW 14 22 30.15 1021 30 48 N/A
11:00 pm 23:00 Partly Cloudy 64 18 59 15 83 83 SSW 12 19 30.15 1021 30 48 N/A
11:30 pm 23:30 Mostly Cloudy 66 19 59 15 78 78 SSW 12 19 30.15 1021 30 48 N/A

Powered by AerisWeather